This demonstration page uses our WeatherBlox Daily Observations layout. Learn more.

Left ArrowRight Arrow

38.88101, -77.10428

Hourly Observations for July 17, 2016

Temp ( °F °C ) Dew Point ( °F °C ) Humidity (%) Winds ( mph kmh ) Pressure ( in mb ) Visibility ( mi km ) Precip ( " mm )
12:52 am 00:52 Cloudy 72 22.2 69 20.6 91 91 SSW 7 11 30.1 1019 10 16.0934 0 0
1:52 am 01:52 Mostly Cloudy 72 22.2 69 20.6 91 91 SW 7 11 30.09 1019 10 16.0934 0 0
2:52 am 02:52 Cloudy 71 21.7 68 20 90 90 S 3 6 30.09 1019 10 16.0934 0 0
3:52 am 03:52 Mostly Cloudy 71 21.7 68 20 90 90 SSW 6 9 30.08 1019 10 16.0934 0 0.0254
4:52 am 04:52 Mostly Clear 71 21.7 68 20 90 90 SSW 6 9 30.09 1019 10 16.0934 0 0
5:52 am 05:52 Mostly Clear 71 21.7 67 19.4 87 87 Calm 30.11 1020 10 16.0934 0 0
6:52 am 06:52 Mostly Sunny 71 21.7 68 20 90 90 SW 5 7 30.13 1020 10 16.0934 0 0
7:52 am 07:52 Mostly Sunny 73 22.8 69 20.6 87 87 S 5 7 30.13 1020 10 16.0934 0 0
8:52 am 08:52 Mostly Sunny 76 24.4 69 20.6 79 79 ESE 5 7 30.14 1021 10 16.0934 0 0
9:52 am 09:52 Mostly Sunny 79 26.1 71 21.7 77 77 ESE 3 6 30.16 1021 10 16.0934 0 0
10:52 am 10:52 Mostly Sunny 84 28.9 68 20 59 59 NNW 9 15 30.17 1022 10 16.0934 0 0
11:10 am 11:10 Partly Cloudy 86 30 66 19 52 52 N 10 17 30.18 1022 10 16.0934 0 0
11:52 am 11:52 Partly Cloudy 86 30 65 18.3 49 49 VRB 6 9 30.17 1022 10 16.0934 0 0
12:52 pm 12:52 Partly Cloudy 88 31.1 64 17.8 45 45 VRB 6 9 30.16 1021 10 16.0934 0 0
1:52 pm 13:52 Mostly Cloudy 89 31.7 65 18.3 45 45 VRB 6 9 30.16 1021 10 16.0934 0 0
2:52 pm 14:52 Mostly Cloudy 91 32.8 66 18.9 44 44 N 8 13 30.14 1021 10 16.0934 0 0
3:52 pm 15:52 Mostly Cloudy 90 32.2 61 16.1 38 38 W 9 15 30.14 1021 10 16.0934 0 0
4:52 pm 16:52 Partly Cloudy 91 32.8 62 16.7 38 38 SSW 8 13 30.12 1020 10 16.0934 0 0
5:52 pm 17:52 Mostly Cloudy 91 32.8 64 17.8 41 41 SSW 9 15 30.12 1020 10 16.0934 0 0
6:52 pm 18:52 Partly Cloudy 89 31.7 65 18.3 45 45 SSW 10 17 30.13 1020 10 16.0934 0 0
7:52 pm 19:52 Mostly Cloudy 87 30.6 67 19.4 51 51 SSW 9 15 30.13 1020 10 16.0934 0 0
8:52 pm 20:52 Partly Cloudy 84 28.9 70 21.1 63 63 S 9 15 30.14 1021 10 16.0934 0 0
9:52 pm 21:52 Mostly Clear 83 28.3 71 21.7 67 67 S 10 17 30.14 1021 10 16.0934 0 0
10:52 pm 22:52 Partly Cloudy 82 27.8 72 22.2 72 72 S 8 13 30.14 1021 10 16.0934 0 0
11:52 pm 23:52 Mostly Cloudy 82 27.8 72 22.2 72 72 S 9 15 30.14 1021 10 16.0934 0 0

Powered by AerisWeather